User: anonymous   Login
Location: Newark
(48.0000°N, 67.0000°E)
Time: 13:30:15
(UTC+00:00)
Language:

deb Explorer IX - Orbit

View from above orbital plane
View from above orbital plane
View from above satellite
View from above satellite

Ground track
Ground track

The orbit data is extracted from the following two-line orbital elements,

1    85U 61004C   20051.82140994 +.00000187 +00000-0 +65263-4 0  9991
2    85 038.7669 260.9022 0381714 076.4585 287.8381 14.20330294914362
Epoch (UTC): 20 February 2020 19:42:49
Eccentricity: 0.0381714
inclination: 38.7669°
perigee height: 549 km
apogee height: 1099 km
right ascension of ascending node: 260.9022°
argument of perigee: 76.4585°
revolutions per day: 14.20330294
mean anomaly at epoch: 287.8381°
orbit number at epoch: 91436

The dashed part of the orbit path shows where the satellite is in the earth's shadow,  

DLR